Regional Weather Roundup
Issued by NWS

Home | Current Version | Previous Version | Text Only | Print | Product List | Glossary Off
Versions: 1 2 3 4 5 6 7 8 9 10 11 12 13 14 15 16 17 18 19 20 21 22 23 24 25 26 27 28 29 30 31 32 33 34 35 36 37 38 39 40 41 42 43 44 45 46 47 48 49 50

000
ASUS43 KBIS 250610
RWRND

NORTH DAKOTA REGIONAL WEATHER ROUNDUP
NATIONAL WEATHER SERVICE BISMARCK ND
100 AM CDT WED APR 25 2018

NOTE: "FAIR" INDICATES FEW OR NO CLOUDS BELOW 12,000 FEET WITH NO
SIGNIFICANT WEATHER AND/OR OBSTRUCTIONS TO VISIBILITY.


NDZ001>003-009>011-017-250700-
NORTHWEST NORTH DAKOTA

CITY           SKY/WX    TMP DP  RH WIND       PRES   REMARKS
WILLISTON      CLEAR     46  34  62 SW8       30.23F
6HR MIN TEMP:  45; 6HR MAX TEMP:  62;

MINOT          CLEAR     48  22  35 SW8       30.23F
$$

NDZ018>021-031>035-040>046-250700-
SOUTHWEST NORTH DAKOTA

CITY           SKY/WX    TMP DP  RH WIND       PRES   REMARKS
BISMARCK       CLEAR     39  27  62 SW6       30.32F
6HR MIN TEMP:  37; 6HR MAX TEMP:  59;

DICKINSON      CLEAR     38  27  64 SW12      30.28F
GARRISON         N/A     35  26  69 S3        30.27F
6HR MIN TEMP:  35; 6HR MAX TEMP:  55;

HETTINGER ARPT CLEAR     32  26  78 CALM      30.35F
$$

NDZ004>008-012>016-024-026-027-054-250700-
NORTHEAST NORTH DAKOTA

CITY           SKY/WX    TMP DP  RH WIND       PRES   REMARKS
GRAND FORKS    FAIR      31  30  96 S7        30.29F
DEVILS LAKE    FAIR      32  27  81 CALM      30.28F
$$

NDZ022-023-025-028>030-036>039-047>053-250700-
SOUTHEAST NORTH DAKOTA

CITY           SKY/WX    TMP DP  RH WIND       PRES   REMARKS
FARGO          FAIR      32  27  81 CALM      30.32F
6HR MIN TEMP:  32; 6HR MAX TEMP:  52;

JAMESTOWN      CLEAR     31  26  82 S6        30.31F
$$





USA.gov is the U.S. government's official web portal to all federal, state and local government web resources and services.